User: anonymous   Login
Location: Owatonna
(44.0840°N, 93.2260°W)
Time: 02:16:26
(UTC-06:00)
Language:

Cosmos 839 Rocket - Orbit

View from above orbital plane
View from above orbital plane
View from above satellite
View from above satellite

Ground track
Ground track

The orbit data is extracted from the following two-line orbital elements,

1 09013U 76067B   15024.50834990 -.00000031  00000-0  77972-4 0  5761
2 09013 065.8644 264.7020 0707895 055.2706 156.7790 12.35314373738601
Epoch (UTC): 24 January 2015 12:12:01
Eccentricity: 0.0707895
inclination: 65.8644°
perigee height: 967 km
apogee height: 2086 km
right ascension of ascending node: 264.7020°
argument of perigee: 55.2706°
revolutions per day: 12.35314373
mean anomaly at epoch: 156.7790°
orbit number at epoch: 73860

The dashed part of the orbit path shows where the satellite is in the earth's shadow,  

DLR